Overview Statistics Trail Chart Weather Telemetry Raw packets
 

This is the latest recevied weather packets stored in our database for station/object DH2PG-6. If no packets are shown the sender has not sent any weather packets the latest 10 day(s).

<< 74 75 76 77 78 79 80 >>
Time Temp. Humidity Pressure Rain* Wind** Luminosity Snow
1788015156 18.89° C 79% 1010.5 hPa 0 mm - - -
1788014856 18.89° C 79% 1010.3 hPa 0 mm - - -
1788014555 18.89° C 78% 1010.4 hPa 0 mm - - -
1788013654 20° C 79% 1010.3 hPa 0.51 mm - - -
1788013354 20° C 80% 1010.5 hPa 0.51 mm - - -
1788012754 19.44° C 81% 1010.6 hPa 0.51 mm - - -
1788012453 18.89° C 81% 1010.5 hPa 0.51 mm - - -
1788011553 18.89° C 82% 1010.7 hPa 0.51 mm - - -
1788011252 18.33° C 82% 1010.6 hPa 0.51 mm - - -
1788010952 18.33° C 81% 1010.7 hPa 0.51 mm - - -
1788010652 18.33° C 81% 1010.8 hPa 0.51 mm - - -
1788010351 18.33° C 81% 1010.9 hPa 0 mm - - -
1788009751 18.33° C 80% 1010.9 hPa 0 mm - - -
1788009150 18.33° C 79% 1010.8 hPa 0 mm - - -
1788008850 18.89° C 79% 1010.8 hPa 0 mm - - -
1788008550 18.89° C 79% 1010.9 hPa 0 mm - - -
1788008249 18.89° C 80% 1011 hPa 0 mm - - -
1788007949 18.33° C 80% 1011 hPa 0 mm - - -
1788007649 18.33° C 79% 1011 hPa 0 mm - - -
1788007349 18.33° C 78% 1011.2 hPa 0 mm - - -
1788007048 18.33° C 77% 1011.2 hPa 0 mm - - -
1788006748 18.89° C 76% 1011.2 hPa 0 mm - - -
1788006448 18.89° C 75% 1011.2 hPa 0 mm - - -
1788006147 19.44° C 73% 1011.2 hPa 0 mm - - -
1788005847 20° C 72% 1011.2 hPa 0 mm - - -

* Rain latest hour (hover to see other rain measurements)
** Current wind speed in m/s (hover to see current wind gust speed)